Regional Weather Roundup
Issued by NWS

Home | Current Version | Previous Version | Text Only | Print | Product List | Glossary On
Versions: 1 2 3 4 5 6 7 8 9 10 11 12 13 14 15 16 17 18 19 20 21 22 23 24 25 26 27 28 29 30 31 32 33 34 35 36 37 38 39 40 41 42 43 44 45 46 47 48 49 50
000
ASUS43 KTOP 251508
RWRKS

WEATHER ROUNDUP FOR KANSAS
NATIONAL WEATHER SERVICE GOODLAND KS
1000 AM CDT SAT OCT 25 2014

NOTE:  "FAIR" INDICATES FEW OR NO CLOUDS BELOW 12,000 FEET WITH NO
SIGNIFICANT WEATHER AND/OR OBSTRUCTIONS TO VISIBILITY.

KSZ001>006-013>018-027>032-041>047-251600-
NORTHWEST KANSAS

CITY           SKY/WX    TMP DP  RH WIND       PRES   REMARKS
GOODLAND       SUNNY     59  34  39 NW9       30.17R
HAYS           SUNNY     55  46  71 SW3       30.09S
HILL CITY      SUNNY     59  44  57 NW5       30.10R
RUSSELL        SUNNY     59  54  83 SW3       30.07R
$$

KSZ061>065-074>080-084>089-251600-
SOUTHWEST KANSAS

CITY           SKY/WX    TMP DP  RH WIND       PRES   REMARKS
DODGE CITY     SUNNY     69  46  43 CALM      30.10R
ELKHART          N/A     61  41  48 W6          N/A
GARDEN CITY    SUNNY     60  43  53 W6        30.11R
GREAT BEND     SUNNY     59  54  82 CALM      30.09S
LIBERAL        SUNNY     61  46  59 CALM      30.14S
PRATT          SUNNY     63  55  77 CALM      30.10R
$$

KSZ066>073-081>083-090>101-251600-
SOUTHEAST KANSAS

CITY           SKY/WX    TMP DP  RH WIND       PRES   REMARKS
CHANUTE        SUNNY     63  63 100 S3        30.09R FOG
COFFEYVILLE    SUNNY     63  62  97 S7        30.09R
HUTCHINSON     SUNNY     63  61  93 S3        30.08R FOG
MEDICINE LODGE   N/A     65  60  84 S3        30.08R
NEWTON         SUNNY     64  59  82 SE5       30.10S
PARSONS        SUNNY     66  63  90 S6        30.11R
WICHITA INTL   SUNNY     63  61  93 CALM      30.08R FOG
WICHITA JABRA  MOSUNNY   62  61  96 SE5       30.08R
WICHITA MCCONL SUNNY     65  65 100 SE2       30.09R
WINFIELD       SUNNY     67  62  84 S5        30.09R
$$

KSZ007>012-019>026-033>040-048>060-102>105-251600-
NORTHEAST KANSAS

CITY           SKY/WX    TMP DP  RH WIND       PRES   REMARKS
CONCORDIA      SUNNY     59  56  89 E6        30.09R FOG
EMPORIA        SUNNY     62  61  96 CALM      30.08S
LAWRENCE       FOG       56  55  97 CALM      30.09R VSB<1/4
MANHATTAN      FOG       57  57 100 CALM      30.08S VSB 1/4
MARYSVILLE     SUNNY     55  54  94 N3        30.09S
OLATHE IND     FOG       57  56  96 SW5       30.09R VSB 1
OLATHE EXE     SUNNY     61  61 100 CALM      30.07R FOG
SALINA         SUNNY     63  59  87 CALM      30.07S FOG
TOPEKA BILLARD FOG       57  57 100 CALM      30.09R VSB<1/4
TOPEKA FORBES  SUNNY     62  60  93 CALM      30.08R FOG
$$



USA.gov is the U.S. government's official web portal to all federal, state and local government web resources and services.